Regional Weather Roundup
Issued by NWS

Home | Current Version | Previous Version | Graphics & Text | Print | Product List | Glossary On
Versions: 1 2 3 4 5 6 7 8 9 10 11 12 13 14 15 16 17 18 19 20 21 22 23 24 25 26 27 28 29 30 31 32 33 34 35 36 37 38 39 40 41 42 43 44 45 46 47 48 49 50
000
ASUS43 KDMX 201907
RWRIA

WEATHER ROUNDUP FOR IOWA
NATIONAL WEATHER SERVICE DES MOINES IA
200 PM CDT MON OCT 20 2014

NOTE: "FAIR" INDICATES FEW OR NO CLOUDS BELOW 12,000 FEET WITH NO
SIGNIFICANT WEATHER AND/OR OBSTRUCTIONS TO VISIBILITY.

* - THESE STATIONS ARE NOT NWS STATIONS...THUS NOT UNDER NWS
QUALITY CONTROL.  THEY ALSO DO NOT REPORT WEATHER SUCH
AS PRECIPITATION OR FOG.

IAZ001>003-012>014-020>022-031>034-043>046-202000-
   NORTHWEST IOWA

CITY           SKY/WX    TMP DP  RH WIND       PRES   REMARKS
CARROLL *      SUNNY     70  39  32 NW13G18   30.04F
CHEROKEE *     SUNNY     68  39  34 NW9       30.04F
DENISON *      SUNNY     68  41  37 NW9G15    30.04F
LE MARS *      SUNNY     70  39  32 NW13      30.06F
ORANGE CITY *  SUNNY     70  36  28 NW8       30.06S
SHELDON *      SUNNY     70  37  30 N10G17    30.04F
SIOUX CITY     SUNNY     70  41  34 N9        30.07F
SPENCER        SUNNY     69  38  32 NW13G21   30.04F
STORM LAKE *   SUNNY     68  37  32 NW9G16    30.05F
$$

IAZ055>058-069>071-079>083-090>094-202000-
   SOUTHWEST IOWA

CITY           SKY/WX    TMP DP  RH WIND       PRES   REMARKS
ATLANTIC *     SUNNY     70  41  35 N6G15     30.04F
AUDUBON *      SUNNY     70  34  26 N3        30.06F
CLARINDA *     SUNNY     72  39  30 VRB5      30.07S
COUNCIL BLFS * SUNNY     70  39  32 VRB7      30.06F
CRESTON *      SUNNY     68  41  37 NW9       30.05F
HARLAN  *      SUNNY     70  39  32 N9        30.09F
LAMONI         SUNNY     69  45  41 N8        30.04F
RED OAK *      SUNNY     70  39  32 N7        30.06F
SHENANDOAH *   SUNNY     70  37  30 CALM      30.06F
$$

IAZ047>049-059>061-072>074-084-202000-
   CENTRAL IOWA

CITY           SKY/WX    TMP DP  RH WIND       PRES   REMARKS
AMES           SUNNY     69  40  34 NW12      30.00F
ANKENY *       SUNNY     68  45  42 VRB7G18   30.01S
CHARITON *     SUNNY     68  43  40 NW13G21   30.02F
DES MOINES     SUNNY     70  41  34 NW13      30.01F
GRINNELL*      SUNNY     68  41  37 NW9G18    29.99F
KNOXVILLE *    SUNNY     66  43  42 NW14      30.00S
MARSHALLTOWN   SUNNY     68  41  37 N18       29.98F
PELLA *        SUNNY     68  43  40 NW13G22   30.01F
PERRY *          N/A     70  41  35 NW12      30.02F
$$

IAZ004>006-015-016-023>025-035-036-202000-
   NORTH CENTRAL IOWA

CITY           SKY/WX    TMP DP  RH WIND       PRES   REMARKS
ALGONA *       SUNNY     68  39  34 NW13G22   30.02S
CLARION *      SUNNY     68  41  37 NW16G25   30.00S
ESTHERVILLE    SUNNY     67  39  35 N15       30.02F
FORT DODGE *   SUNNY     68  41  37 NW12G17   30.03S
MASON CITY       N/A     65  42  43 NW18      30.00F
FOREST CITY *  SUNNY     64  43  45 NW14G22   29.99F
IOWA FALLS *     N/A     68  39  34 NW17      30.00F
$$

IAZ007>011-017>019-026>030-037>042-050>054-066-202000-
   NORTHEAST IOWA

CITY           SKY/WX    TMP DP  RH WIND       PRES   REMARKS
CEDAR RAPIDS   SUNNY     65  43  44 NW22G29   29.95F
CHARLES CITY * SUNNY     64  41  42 NW18G25   29.97S
CLINTON *      MOSUNNY   66  43  42 NW21G26   29.94F
DECORAH *      SUNNY     63  45  51 NW13G18   29.94S
DUBUQUE        MOSUNNY   63  44  50 N17       29.93S
MONTICELLO *   MOSUNNY   66  45  45 NW18G25   29.92F
OELWEIN *      SUNNY     64  43  45 NW15G26   29.95F
WATERLOO       SUNNY     68  42  38 N18G28    29.95F
$$

IAZ064-065-067-068-078-202000-
   EAST CENTRAL IOWA

CITY           SKY/WX    TMP DP  RH WIND       PRES   REMARKS
DAVENPORT      MOSUNNY   67  42  40 NW17G25   29.93F
IOWA CITY      SUNNY     67  44  43 NW18G24   29.96F
MT. PLEASANT * SUNNY     66  41  39 NW14G25   29.97F
MUSCATINE *    SUNNY     68  43  40 NW18G25   29.95S
QUAD CITIES    MOSUNNY   66  45  46 NW14      29.92F
$$

IAZ062-063-075>077-085>089-095>099-202000-
   SOUTHEAST IOWA

CITY           SKY/WX    TMP DP  RH WIND       PRES   REMARKS
BURLINGTON     SUNNY     67  44  43 NW12G24   29.95F
FAIRFIELD *    SUNNY     68  41  37 NW15G21   29.98S
FORT MADISON * SUNNY     70  45  40 NW15G22   29.97F
KEOKUK *       SUNNY     68  45  42 NW15G21   29.97S
OSKALOOSA *      N/A     68  41  37 NW14G20   29.99F
CENTERVILLE *  SUNNY     68  45  42 NW9       30.03F
OTTUMWA        SUNNY     67  45  45 NW14      29.99F
WASHINGTON *   MOSUNNY   68  45  42 NW17G29   29.97S
$$

ABBREVIATIONS USED IN REMARKS
   TC - TEMPERATURES IN CELSIUS
  WCI - WIND CHILL INDEX
   HX - HEAT INDEX
  VSB - VISIBILITY
$$



USA.gov is the U.S. government's official web portal to all federal, state and local government web resources and services.